Back to catalog

STARLINK-34532

AliveCommunicationsVLEO
NORAD 64607·PAYLOAD·🇺🇸 United States

Launched Jun 25, 2025 from Cape Canaveral Space Force Station

Loading…

Next Passes (next 24 hours)

TLE

FreshSource: CelesTrak SupGP

Epoch: Sep 14, 2026, 15:18 UTC

1 64607C 25137P   26257.63798611  .00064231  00000+0  18984-2 0  2578
2 64607  53.1577 184.7951 0001213  86.6782 225.8079 15.34347791    10

Track STARLINK-34532 in real time with AllMySat

Download on the App Store